Regional Weather Roundup
Issued by NWS

Home | Current Version | Previous Version | Graphics & Text | Print | Product List | Glossary On
Versions: 1 2 3 4 5 6 7 8 9 10 11 12 13 14 15 16 17 18 19 20 21 22 23 24 25 26 27 28 29 30 31 32 33 34 35 36 37 38 39 40 41 42 43 44 45 46 47 48 49 50
932
ASUS43 KFSD 282210
RWRSD

WEATHER ROUNDUP FOR SOUTH DAKOTA
NATIONAL WEATHER SERVICE SIOUX FALLS SD
500 PM CDT THU APR 28 2016

NOTE: "FAIR" INDICATES FEW OR NO CLOUDS BELOW 12,000 FEET WITH NO
SIGNIFICANT WEATHER AND/OR OBSTRUCTIONS TO VISIBILITY.


SDZ001>005-009-010-012>017-282300-
NORTHWEST AND NORTH CENTRAL SOUTH DAKOTA

CITY           SKY/WX    TMP DP  RH WIND       PRES   REMARKS
BUFFALO          N/A     39  34  82 E7        30.03F
FAITH            N/A     37  32  82 NW7       30.08F
MOBRIDGE       CLOUDY    53  35  50 E8        30.03S
$$

SDZ012>016-024>037-041>051-057-063-072>074-282300-
SOUTHWEST AND SOUTH CENTRAL SOUTH DAKOTA

CITY           SKY/WX    TMP DP  RH WIND       PRES   REMARKS
RAPID CTY ARPT CLOUDY    41  34  76 NE12      30.05S
PIERRE         CLOUDY    48  36  63 NE9       30.04F
CUSTER         CLOUDY    34  28  79 NE8       29.99R WCI  27
ELLSWORTH AFB  CLOUDY    40  35  83 NE9       30.05
PHILIP         CLOUDY    43  35  73 NE10      30.07R
PINE RIDGE     CLOUDY    42  35  76 N9        30.03S
WINNER         CLOUDY    45  37  73 N12       30.05R
$$

SDZ004>011-016>023-039-040-282300-
NORTHEAST SOUTH DAKOTA

CITY           SKY/WX    TMP DP  RH WIND       PRES   REMARKS
ABERDEEN       CLOUDY    52  35  52 NE12G20   30.06R
WATERTOWN      FLURRIES  37  34  89 NE12      30.04S
BROOKINGS      CLOUDY    38  33  82 NE10      30.03R
SISSETON         N/A     47  33  58 E8        30.06S
$$

SDZ017-020-022-023-036>040-048>070-282300-
SOUTHEAST SOUTH DAKOTA

CITY           SKY/WX    TMP DP  RH WIND       PRES   REMARKS
SIOUX FALLS    CLOUDY    42  36  79 N8        30.02S
HURON          CLOUDY    43  37  79 MISG      30.05R
CHAMBERLAIN    CLOUDY    46  40  79 NE9       30.05R
MITCHELL       CLOUDY    43  39  86 N8        30.05S
YANKTON        CLOUDY    45  36  70 N12       30.03R
$$

ABBREVIATIONS USED IN REMARKS
   TC - TEMPERATURE IN CELSIUS
  WCI - WIND CHILL INDEX
   HX - HEAT INDEX
  VSB - VISIBILITY





USA.gov is the U.S. government's official web portal to all federal, state and local government web resources and services.